Location: Lombard
(41.8800°N, 88.0080°W)
Time: 03:38:49
(UTC-05:00)

Vanguard 2 Rocket - Pass Details

Date: 01 March 2024
Orbit: 555 x 3307 km, 32.9° (Epoch: 12 April)

Event Time Altitude Azimuth Distance (km) Brightness Sun altitude
Rises 11:05:00 0° 200° (SSW) 3,140 10.3 39.1°
Reaches altitude 10° 11:08:01 10° 177° (S) 2,503 10.3 39.3°
Maximum altitude 11:11:34 16° 140° (SE) 2,457 10.3 39.5°
Drops below altitude 10° 11:16:09 10° 105° (ESE) 3,410 10.3 39.7°
Sets 11:21:26 0° 88° (E) 5,003 10.8 40.0°
